User: anonymous   Login
Location: Mason
(37.5237°N, 89.2543°W)
Time: 09:42:49
(UTC+00:00)
Language:

Meteor 1-27 Rocket - Orbit

View from above orbital plane
View from above orbital plane
View from above satellite
View from above satellite

Ground track
Ground track

The orbit data is extracted from the following two-line orbital elements,

1 09904U 77024B   22148.80637945 -.00000025  00000-0 -21592-4 0  9993
2 09904  81.2623 184.0829 0052750 280.0020  79.5199 14.06937382316596
Epoch (UTC): 28 May 2022 19:21:11
Eccentricity: 0.0052750
inclination: 81.2623°
perigee height: 831 km
apogee height: 908 km
right ascension of ascending node: 184.0829°
argument of perigee: 280.0020°
revolutions per day: 14.06937382
mean anomaly at epoch: 79.5199°
orbit number at epoch: 31659

The dashed part of the orbit path shows where the satellite is in the earth's shadow,  

DLR